Hourly Data Report for October 25, 2014

All times are specified in Local Standard Time (LST). Add 1 hour to adjust for Daylight Saving Time where and when it is observed.

WINNIPEG A CS
MANITOBA

49°55'00.000" N
97°14'58.000" W
238.70 m
502S001
71849
XWG

Download Data

Hourly Data (October 2014)
Hourly Data Report for October 25, 2014
Temp Definition
°C
Dew Point Temp Definition
°C
Rel Hum Definition
%
Wind Dir Definition
10's deg

Wind Spd Definition
km/h
Visibility Definition
km
Stn Press Definition
kPa
Hmdx Definition


Wind Chill Definition


Weather Definition


TIME
00:00 6.8 0.6 65 29 17   98.23     LegendNANA
01:00 4.6 -0.2 71 28 15   98.27     LegendNANA
02:00 5.4 -0.5 66 26 16   98.30     LegendNANA
03:00 4.6 -0.7 68 26 19   98.33     LegendNANA
04:00 4.4 -0.2 72 27 19   98.38     LegendNANA
05:00 4.5 -0.3 71 27 22   98.42     LegendNANA
06:00 3.5 -0.8 74 27 21   98.48     LegendNANA
07:00 3.6 -1.0 72 26 22   98.54     LegendNANA
08:00 4.1 -0.7 71 26 25   98.60     LegendNANA
09:00 6.7 0.1 63 27 27   98.64     LegendNANA
10:00 9.0 0.6 56 27 28   98.70     LegendNANA
11:00 10.7 -0.8 45 29 31   98.71     LegendNANA
12:00 12.3 -0.8 40 30 33   98.72     LegendNANA
13:00 13.2 -1.0 37 30 28   98.68     LegendNANA
14:00 13.9 -2.4 32 31 34   98.65     LegendNANA
15:00 14.0 -3.3 30 30 39   98.66     LegendNANA
16:00 13.2 -2.0 35 32 24   98.67     LegendNANA
17:00 10.2 -1.4 44 32 14   98.66     LegendNANA
18:00 6.9 -1.8 54 32 7   98.61     LegendNANA
19:00 6.5 -1.7 56 27 10   98.61     LegendNANA
20:00 5.3 -1.9 60 26 10   98.60     LegendNANA
21:00 1.0 -4.2 68 25 7   98.57     LegendNANA
22:00 0.1 -6.2 63 26 8   98.55     LegendNANA
23:00 1.9 -2.9 71 25 2   98.58     LegendNANA

Notes on Data Quality.

Legend

  • E = Estimated
  • M = Missing
  • NA = Not Available
  • ‡ = Partner data that is not subject to review by the National Climate Archives
Date modified: